Location: Beemte
(52.2555°N, 5.9895°E)
Time: 12:02:16
(UTC+00:00)

NOSS 3-4 (A) - Pass Details

Date: 15 May 2026
Orbit: 769 x 1442 km, 63.4° (Epoch: 10 January)

Event Time Altitude Azimuth Distance (km) Brightness Sun altitude
Rises 20:39:12 0° 313° (NW) 3,626 8.8 -9.4°
Reaches altitude 10° 20:41:34 10° 313° (NW) 2,761 7.5 -9.6°
Maximum altitude 20:48:09 82° 227° (SW) 1,136 3.9 -10.3°
Enters shadow 20:55:06 14° 142° (SE) 2,956 5.3 -10.9°
